cliquez pour ajouter le site Runraid à vos favoris  English version (google)  Retour à l'accueil Ecrire à l'auteur du site Runraid : Michel Jourdan


 Visitez La Boutique 


 Diagonale des Fous 

Ecrire au créateur du site : Michel Jourdan
Contact


2018-04-01 - Trail des Citadelles (40 km)

Pour consulter le palmarès d'un coureur, un clic sur son nom !

Vous avez des remarques, corrections, ... sur ces résultats , un clic sur --> pour me transmettre toute information concernant les classements


Trail des Citadelles (40 km) - 2018 : classement des 572 finishers
Place Nom Temps Cat. Club Sexe Clt/cat.
Place Nom Temps Cat. Club Sexe Clt/cat.
1 Ghirard Florent 03:49:19 SEM M 0
2 Alicot Nicolas 03:54:05 SEM M 0
3 Sanchez Romain 03:57:44 SEM M 0
4 Massou Pascal 04:02:27 V1M M 1 V1M 0
5 Champinot Remi 04:06:57 SEM M 0
6 Cavalca Stephane 04:11:34 V1M M 2 V1M 0
7 Lagoin Christophe 04:11:45 SEM M 0
8 Cougul Xavier 04:12:03 SEM M 0
9 Torres Clement 04:15:22 SEM M 0
10 Billerach Julien 04:17:13 SEM M 0
11 Balitrand Dominique 04:19:35 V1M M 3 V1M 0
12 Alves Fabrice 04:24:47 V1M M 0
13 Rumeau Florian 04:26:11 SEM M 0
14 Maccotta Laurent 04:30:02 V1M M 0
15 Bajul Xavier 04:31:12 V1M M 0
16 Panader Eric 04:31:37 V1M M 0
17 Marty Cedric 04:32:04 SEM M 0
18 Aubourg Sebastien 04:32:19 SEM M 0
19 Boineau Yannick 04:32:32 V1M M 0
20 Servant Nadege 04:33:04 SEF F 1ere F 0
21 Coufourier Jonathan 04:35:04 SEM M 0
22 Arondel Anthony 04:37:16 SEM M 0
23 Ribet Yannick 04:38:30 SEM M 0
24 Vila Benoit 04:43:09 SEM M 0
25 Oillic Adrien 04:43:20 SEM M 0
26 Bonazzi Cedric 04:45:11 SEM M 0
27 Buron Glen 04:45:54 SEM M 0
28 Le Flech Ghyslain 04:47:20 V1M M 0
29 Lelievre Jerome 04:47:43 SEM M 0
30 Magnanon Loic 04:48:54 V1M M 0
31 Dabernat Bastien 04:50:05 ESM M 1 ESM 0
32 Costa Francois 04:52:08 V1M M 0
33 Thiesse Bernard 04:54:22 V3M M 1 V3M 0
34 Vandewalle Nicolas 04:54:44 SEM M 0
35 Verdalle Cedric 04:54:50 V1M M 0
36 Reulet David 04:55:29 V1M M 0
37 Girard Christophe 04:55:32 V2M M 1 V2M 0
38 Carpentier Thomas 04:57:38 SEM M 0
39 Marc Cedric 04:58:12 V1M M 0
40 Depeyris Jerome 05:00:35 SEM M 0
41 Napora Jaroslaw 05:01:49 V1M M 0
42 Chopin Corinne 05:01:56 V1F F 2 F 0
43 Durand Julien 05:01:59 SEM M 0
44 Dupuy Pascal 05:03:26 V1M M 0
45 Meynsan Jerome 05:03:53 V1M M 0
46 Thoumieux Frederic 05:04:32 V1M M 0
47 Bonnefous Regis 05:06:33 V1M M 0
48 Parot Xavier 05:07:04 SEM M 0
49 Sanguiniti Raphael 05:08:05 V1M M 0
50 Bidart Marie Helene 05:08:09 V1F F 3 F 0
51 Charles Francois 05:08:14 V1M M 0
52 Prost Emmanuel 05:09:10 V1M M 0
53 Salomone Thomas 05:10:43 SEM M 0
54 Marcon Kevin 05:10:49 SEM M 0
55 Lacroix Louis 05:11:22 SEM M 0
56 Pento Jerome 05:11:43 V1M M 0
57 Couanon Antoine 05:13:04 SEM M 0
58 Pereira Frederic 05:13:44 V1M M 0
59 Ubeda Alexandre 05:13:52 SEM M 0
60 Chanez Nicolas 05:14:13 V1M M 0
61 Bruel Mathieu 05:14:23 ESM M 2 ESM 0
62 Morais Paulo 05:15:15 SEM M 0
63 Hebraud Benjamin 05:15:24 SEM M 0
64 Picard Alexandre 05:16:10 SEM M 0
65 Laveze Jerome 05:16:47 SEM M 0
66 Mordant Pierre 05:17:12 SEM M 0
67 Beguier Julien 05:17:43 V1M M 0
68 Guiavarch Eric 05:18:34 V1M M 0
69 Lefranc Axel 05:19:39 V1M M 0
70 Pagnac Laurie 05:20:18 SEF F 4 F 0
71 Duplan Valerie 05:20:25 V2F F 5 F 0
72 Jaqir Granger Youssef 05:21:00 SEM M 0
73 Gerdil Jerome 05:21:42 V1M M 0
74 Guiavarch Ronan 05:22:41 V1M M 0
75 Grindes Matthieu 05:22:46 V1M M 0
76 Carini Davy 05:22:48 V1M M 0
77 Lombard Fabien 05:24:07 V2M M 2 V2M 0
78 Perrenoud Thomas 05:24:21 SEM M 0
79 Gobert Jerome 05:24:41 V1M M 0
80 Vacquier David 05:25:08 V1M M 0
81 Pinto Claude 05:25:23 V1M M 0
82 Ultra Richard 05:26:02 V1M M 0
83 Lievin Veronique 05:26:16 SEF F 0
84 Fey Audric 05:27:46 SEM M 0
85 Faisse Gregory 05:27:49 SEM M 0
86 Pinaud Guillaume 05:27:52 SEM M 0
87 Calvignac Philippe 05:27:55 V2M M 3 V2M 0
88 Alberto Nicolas 05:28:17 SEM M 0
89 Huc Cyrille 05:28:21 V1M M 0
90 Juliac Etienne 05:28:23 V1M M 0
91 Luis Vicent Ana 05:28:25 V1F F 0
92 Pradas Saura Ruben 05:28:27 V1M M 0
93 Ohana David 05:29:42 SEM M 0
94 Lelievre Lohann 05:29:45 SEM M 0
95 Boschini Guillaume 05:29:47 V1M M 0
96 Connan Enzo 05:29:55 ESM M 3 ESM 0
97 Brunel Guillaume 05:29:58 SEM M 0
98 Carreras Jean Michel 05:30:12 SEM M 0
99 Depez Sylvain 05:30:45 SEM M 0
100 Giraud Beno t 05:31:23 SEM M 0
101 Cartier Frederic 05:32:19 V1M M 0
102 Navarro Stephane 05:34:13 V1M M 0
103 Lopez Olivier 05:34:55 SEM M 0
104 Gouaze Stephanie 05:35:09 V1F F 0
105 Rouault Vincent 05:35:19 V2M M 0
106 Le Brun Chloe 05:35:23 SEF F 0
107 Rouquet Vincent 05:35:28 V1M M 0
108 Favennec Erwan 05:35:32 V1M M 0
109 Valette Sebastien 05:35:53 V1M M 0
110 Hafsi Mustapha 05:36:59 V2M M 0
111 Tellier Emilie 05:37:49 SEF F 0
112 Brossard Clement 05:39:36 SEM M 0
113 Taupin Olivier 05:39:48 V1M M 0
114 Caron Christophe 05:40:35 V2M M 0
115 Piquemal Pastre Marie Laure 05:41:22 V1F F 0
116 Guardia Fabien 05:42:47 SEM M 0
117 Venier Christophe 05:43:07 V2M M 0
118 Vaillant Yves 05:43:09 V1M M 0
119 Caillaud Anthony 05:43:31 SEM M 0
120 Thomas Franck 05:43:34 SEM M 0
121 Bousquet Alexis 05:43:38 SEM M 0
122 Fevrier Thierry 05:43:40 V1F F 0
123 Guillotin Franck 05:43:51 V2M M 0
124 Bruniquel Vincent 05:43:57 V1M M 0
125 Bahuaud Gaetan 05:44:27 V1M M 0
126 Lacarrau Alain 05:44:29 V1M M 0
127 Bassi Joelle 05:44:36 V2F F 0
128 Mercadier Lucas 05:44:45 SEM M 0
129 Tranier Thibaut 05:44:57 SEM M 0
130 Paulat Sebastien 05:45:08 V1M M 0
131 Miura Anthony 05:45:20 SEM M 0
132 Bernadet Xavier 05:45:22 SEM M 0
133 Avedillo Xavier 05:45:45 SEM M 0
134 Olivry Brice 05:46:19 SEM M 0
135 Coinchelin Nicolas 05:47:23 SEM M 0
136 Durand Gerard 05:47:27 V3M M 2 V3M 0
137 Chevet Christophe 05:47:38 SEM M 0
138 Corona Sebastien 05:47:57 SEM M 0
139 Roux Lionel Georges 05:47:59 V2M M 0
140 Vieville Florent 05:48:02 SEM M 0
141 Mousset Cyril 05:49:00 SEM M 0
142 Lasgleyses Cedric 05:49:03 SEM M 0
143 Laganne Jacques 05:49:24 V1M M 0
144 Meunier Thomas 05:50:15 SEM M 0
145 Carriere Sebastien 05:50:24 SEM M 0
146 Casu Guillaume 05:50:26 SEM M 0
147 Lemaire Romain 05:50:32 SEM M 0
148 Landes Benoit 05:50:38 SEM M 0
149 Briere Mathieu 05:51:57 V1M M 0
150 Calestroupat Thierry 05:53:07 SEM M 0
151 Duarte Nicolas 05:53:47 V1M M 0
152 Dubois Frederic 05:53:53 V2M M 0
153 Chevallereau David 05:54:11 V1M M 0
154 Lavigne Frederic 05:54:16 SEM M 0
155 Dejean Michael 05:54:18 SEM M 0
156 Bernoville Sandrine 05:54:22 SEF F 0
157 Bernoville Gael 05:54:24 SEM M 0
158 Rougie Katia 05:54:40 V1F F 0
159 Cabande David 05:54:46 SEM M 0
160 Pardes Romain 05:55:31 V1M M 0
161 Daube Nicolas 05:55:33 V1M M 0
162 Vasseur Jean Philippe 05:55:39 V1M M 0
163 Mendez Xavier 05:55:58 V1M M 0
164 Raoul Laurent 05:56:16 V1M M 0
165 Nogues Dominique 05:56:21 SEM M 0
166 Courtois Sebastien 05:56:30 V1M M 0
167 Andrieu Fabien 05:57:07 SEM M 0
168 Michel Gildas 05:57:10 SEM M 0
169 Souquieres Jean Francois 05:57:14 V2M M 0
170 Tisseyre Julien 05:57:17 SEM M 0
171 Pauly Christophe 05:57:20 V1M M 0
172 Le Meur Baptiste 05:57:44 SEM M 0
173 Dufort Leslie 05:58:07 SEF F 0
174 Saune Nicolas 05:58:50 SEM M 0
175 Vallve Marc 05:59:10 V1M M 0
176 Lanthelme Maurin 05:59:29 SEM M 0
177 Lagreou Paul 05:59:49 SEM M 0
178 Blanc Renaud 05:59:53 V1M M 0
179 Albert Cedric 06:01:07 V1M M 0
180 Goy Jerome 06:01:14 SEM M 0
181 Dasque Julien 06:01:19 SEM M 0
182 Jauffrit Quentin 06:01:30 SEM M 0
183 Bossis Emmanuel 06:01:33 V1M M 0
184 Flahaut Alrik 06:01:36 SEM M 0
185 Bru Alexandre 06:01:38 V1M M 0
186 Lormant Richard 06:02:44 V1M M 0
187 Gilet Olivier 06:02:47 V1M M 0
188 Foix Sauret David 06:02:50 V1M M 0
189 Kendall Aislinn 06:02:56 SEF F 0
190 Kendall Jonny 06:02:58 SEM M 0
191 Laurent Nicolas 06:03:01 SEM M 0
192 Leboeuf Kevin 06:03:13 SEM M 0
193 Lemond Julien 06:04:27 SEM M 0
194 Banet Vincent 06:04:31 V1M M 0
195 Bayche Olivier 06:04:37 SEM M 0
196 Fouquet Gerald 06:05:03 V1M M 0
197 Fassot Mathias 06:05:06 V1M M 0
198 Diveux Thierry 06:06:11 V1M M 0
199 Dubois Nicolas 06:06:35 SEM M 0
200 Dabouineau Johann 06:06:55 V1M M 0
201 Torresin Stephane 06:08:03 V1M M 0
202 Dumartin David 06:08:40 V1M M 0
203 Jullien Frederic 06:09:15 SEM M 0
204 Moreau Marius 06:09:24 SEM M 0
205 Solier Arnaud 06:09:46 V1M M 0
206 Degoutte Cedric 06:09:52 V1M M 0
207 Naya Laurent 06:10:05 V1M M 0
208 Sourbe Beno t 06:10:21 V1M M 0
209 Berra Marion 06:10:35 SEF F 0
210 Perrin Valentine 06:10:39 SEF F 0
211 Sariege Yannick 06:10:41 SEM M 0
212 Guillien Stephane 06:10:55 V1M M 0
213 Bilheran Jean Marc 06:11:03 V1M M 0
214 Delprat Christel 06:11:13 V1F F 0
215 Rouzeaud Lionel 06:11:18 SEM M 0
216 Gilles Nathanael 06:11:22 SEM M 0
217 Julian Gual Soraya 06:11:25 SEF F 0
218 Coudie Yannick 06:11:28 SEM M 0
219 Decap Laurent 06:11:36 SEM M 0
220 Bordessoulles Benoit 06:11:43 V1M M 0
221 Tignous Patrick 06:11:45 V1M M 0
222 Saint Martino Sebastien 06:12:13 SEM M 0
223 Bonnefon Christophe 06:12:32 V1M M 0
224 Petit Stephane 06:13:27 V1M M 0
225 Blattes Michel 06:14:24 V2M M 0
226 Viola Gael 06:14:29 SEM M 0
227 Blandinieres Thierry 06:14:41 V2M M 0
228 Pajot Hugues 06:14:46 V1M M 0
229 Auroux Henri 06:15:05 V3M M 3 V3M 0
230 Grave Reynald 06:16:05 V1M M 0
231 Votier Wilfried 06:16:07 SEM M 0
232 Pons Jerome 06:16:09 V1M M 0
233 Saves Dav 06:16:11 SEM M 0
234 Lemasson Vincent 06:16:16 V1M M 0
235 Kan Francois 06:16:19 SEM M 0
236 Vidal Jean Michel 06:16:55 V1M M 0
237 Delpech Denis 06:18:23 V1M M 0
238 Fronteau Thomas 06:19:08 SEM M 0
239 Fouche Corinne 06:19:59 V1F F 0
240 Elaoud Faycal 06:20:01 SEM M 0
241 Cuisset Sebastien 06:20:04 SEM M 0
242 Amoros Romain 06:20:08 SEM M 0
243 Vigneau Claire 06:20:13 V1F F 0
244 Guiboux Despiau Helene 06:20:16 V1F F 0
245 Normand Christelle 06:20:19 SEF F 0
246 Tieyre Gregory 06:21:26 SEM M 0
247 Bouyssi Meline 06:21:41 SEF F 0
248 Petit Sylvain 06:21:44 SEM M 0
249 Constans Claude 06:21:52 V2M M 0
250 Bernard Jeremy 06:22:16 SEM M 0
251 Hamon Sylvain 06:23:01 SEM M 0
252 Daffos Sebastien 06:23:09 V1M M 0
253 Coyco Ludovic 06:23:36 V1M M 0
254 Munier Benjamin 06:25:04 SEM M 0
255 Trincat Francois 06:25:20 V2M M 0
256 Leger Arnaud 06:25:33 SEM M 0
257 Bodard Mathias 06:25:41 SEM M 0
258 Fournet Yanik 06:25:44 V1M M 0
259 Castillo Antonio 06:26:02 V1M M 0
260 Guillemot Thomas 06:26:48 SEM M 0
261 Reynaud Lilian 06:26:50 V2M M 0
262 Gayet Nadine 06:26:53 V1F F 0
263 Vergnenegre Olivier 06:27:07 V1M M 0
264 Castro Ghislaine 06:28:00 V1F F 0
265 Aso Florent 06:28:14 SEM M 0
266 Calvet Philippe 06:28:40 V1M M 0
267 Benaben Christophe 06:29:39 SEM M 0
268 Riviere Christophe 06:29:42 SEM M 0
269 Lamouroux Denis 06:29:48 SEM M 0
270 Metivier Alain 06:29:52 V1M M 0
271 Danes Christophe 06:29:54 V1M M 0
272 Gil Matthieu 06:30:04 V1M M 0
273 Mercadier Fabrice 06:30:16 V1M M 0
274 Figureau Eric 06:30:21 V2M M 0
275 Belhon Philippe 06:30:30 V2M M 0
276 Jardat Hugues 06:32:09 V2M M 0
277 Raffaud Frederic 06:32:28 V2M M 0
278 Ortega Manuel 06:33:45 V2M M 0
279 Dabadie Jean Baptiste 06:33:49 SEM M 0
280 Thouvenin Remi 06:33:51 SEM M 0
281 Lamothe Frederic 06:33:53 V1M M 0
282 Brosse Xavier 06:33:57 V1M M 0
283 Gaillard France.may 06:34:18 V1F F 0
284 Serniguet Claire 06:34:21 V1F F 0
285 Fraioli Pierre Alexandre 06:34:30 SEM M 0
286 Mille Stephane 06:34:34 V1M M 0
287 Zerlaudt Laetitia 06:35:15 SEF F 0
288 Bournonville Philippe 06:35:18 V2M M 0
289 Dubet Luc 06:35:31 V1M M 0
290 Rumeau Cedric 06:35:44 V1M M 0
291 Provensol Katia 06:36:25 V1F F 0
292 Gailhard Jeremie 06:36:51 SEM M 0
293 Rouge Thierry 06:37:14 V2M M 0
294 Ramalho Jean Michel 06:37:46 V1M M 0
295 Aussenac Jean Francois 06:37:51 SEM M 0
296 Ramon Patrick 06:38:01 V2M M 0
297 Egea William 06:38:15 V1M M 0
298 Mars Didier 06:38:53 V1M M 0
299 Simoes David 06:38:55 V1M M 0
300 Batalla Franck 06:38:58 V1M M 0
301 Giraud Samuel 06:39:34 V1M M 0
302 Trani Julien 06:39:50 SEM M 0
303 Tapparo Beno t 06:40:02 V1M M 0
304 Bardy Sandrine 06:40:04 V1F F 0
305 Brette Eric 06:40:07 V2M M 0
306 Sicre Gabriel 06:40:10 V1M M 0
307 Luby Cyril 06:40:17 V1M M 0
308 Delferriere Robin 06:40:22 SEM M 0
309 Hamel Matthias 06:40:33 V1M M 0
310 Schmitz Jean Rene 06:40:45 V2M M 0
311 Delaune Charles 06:41:14 SEM M 0
312 Elmon Sebastien 06:42:22 V1M M 0
313 Lagiscarde Philippe 06:43:10 V2M M 0
314 Fourre Jacques 06:43:13 V1M M 0
315 Mieulet Mathieu 06:43:15 SEM M 0
316 Ganza Sebastien 06:43:18 SEM M 0
317 Boesso Fabien 06:44:17 SEM M 0
318 Capella Florent 06:44:45 V1M M 0
319 Geneste Sebastien 06:44:49 V1M M 0
320 Darnaud Thierry 06:44:59 V1M M 0
321 Moreno Jose 06:45:09 V2M M 0
322 Cazalet David 06:45:15 V1M M 0
323 Baptiste David 06:45:17 V1M M 0
324 Guyot Julien 06:46:15 SEM M 0
325 Poissonnet Anne Laure 06:46:27 SEF F 0
326 Poissonnet Cyril 06:46:30 SEM M 0
327 Virenque David 06:47:03 V1M M 0
328 Reynaud Emmanuelle 06:48:00 V1F F 0
329 De Nardi Aurore 06:48:39 SEF F 0
330 Oliva Alain 06:48:56 V3M M 0
331 Piron Mathieu 06:49:00 V1M M 0
332 Mauran Gregory 06:49:05 V1M M 0
333 Bouffil Laetitia 06:49:08 SEF F 0
334 Ledez Olivier 06:49:10 V2M M 0
335 Escuer Lionel 06:49:14 SEM M 0
336 Ardrino Jean Francois 06:49:17 V1M M 0
337 Zorzer Nadege 06:49:19 SEF F 0
338 Henri Nicolas 06:49:34 SEM M 0
339 Weidner Jean Francois 06:49:36 V1M M 0
340 Pecheu Sebastien 06:49:46 V1M M 0
341 Bohere Pierre 06:50:19 SEM M 0
342 Catusse Alain 06:51:31 V1M M 0
343 Laporte Patrick 06:51:36 V2M M 0
344 Turquand Pierre 06:54:39 V1M M 0
345 Pimbert Cedric 06:55:23 SEM M 0
346 Decayeux Philippe 06:55:26 V1M M 0
347 Leroux Valerie 06:56:05 SEF F 0
348 Guilbaud Maxime 06:56:10 SEM M 0
349 Puissant Nicolas 06:56:35 V3M M 0
350 Lepine Patrice 06:56:39 V2M M 0
351 Godefroy Pierre 06:56:42 SEM M 0
352 Castro Rene 06:56:49 V2M M 0
353 Thybert Xavier 06:56:52 V1M M 0
354 Verguet Stephane 06:57:26 V1M M 0
355 Laudu Sebastien 06:58:02 V1M M 0
356 Rullier Fabien 06:59:12 V1M M 0
357 De Pra Patrice 07:00:16 V1M M 0
358 Fournie Georges 07:00:20 V3M M 0
359 Monfraix Jean Luc 07:00:29 V2M M 0
360 Hocq Virgil 07:00:41 V1M M 0
361 Rouquette Alain 07:00:49 V2M M 0
362 Demay Steve 07:01:05 V1M M 0
363 Billottet Jean Marc 07:01:22 V2M M 0
364 Dufourcq Frederic 07:01:31 V1M M 0
365 Kverneland Ole 07:01:45 V1M M 0
366 Asseeff Aurelien 07:01:49 SEM M 0
367 Imbert Joel 07:02:04 SEM M 0
368 Burger Lauriane 07:02:35 SEF F 0
369 Verdier Laure 07:02:39 SEF F 0
370 Banquet Frederic 07:02:44 V1M M 0
371 Colombo Thomas 07:03:32 SEM M 0
372 Sinaud Vincent 07:04:09 SEM M 0
373 Piau Guillaume 07:04:25 SEM M 0
374 Provensol Sabine 07:04:31 V1F F 0
375 Bottin Jean Claude 07:04:42 V1M M 0
376 Nede Franck 07:04:54 V2M M 0
377 Larrue Jordan 07:05:03 SEM M 0
378 Jouan Elise 07:05:07 SEF F 0
379 Cassan Stephane 07:05:24 V1M M 0
380 Lasserre Sabine 07:05:28 V1M M 0
381 Morante Nicolas 07:05:38 V1M M 0
382 Claustre Cedric 07:05:40 V1M M 0
383 Dasque Solene 07:05:52 SEF F 0
384 Teyssedre Cedric 07:06:00 V1M M 0
385 Labeille Marie 07:06:37 SEF F 0
386 Guendouzi Karim 07:06:42 V1M M 0
387 Liger Yannis 07:07:01 SEM M 0
388 Clavel Daniel 07:07:28 V3M M 0
389 Pondevie Fabien 07:07:50 SEM M 0
390 Cousseau Sebastien 07:09:07 V1M M 0
391 Fenech Sandrine 07:09:38 SEF F 0
392 Vallve Sandra 07:09:40 SEF F 0
393 Sanquer Stephane 07:09:43 V1M M 0
394 Brilloux Elise 07:10:25 SEF F 0
395 Habert Romain 07:10:40 SEM M 0
396 Pages Jeremy 07:10:46 V1M M 0
397 Reverdy Jerome 07:11:02 SEM M 0
398 Burgue Stephanie 07:11:28 SEF F 0
399 Savel Guilhem 07:11:40 SEM M 0
400 Gillard Christophe 07:12:13 SEM M 0
401 Dejean Magali 07:14:03 V1F F 0
402 Darraidou Pierre 07:14:21 SEM M 0
403 Gateau Guillaume 07:14:44 V2M M 0
404 Lhomme Deborah 07:14:47 V1F F 0
405 Serre Philippe 07:14:50 V1M M 0
406 Villaceque Benjamin 07:15:01 SEM M 0
407 Beny Nicolas 07:15:03 SEM M 0
408 Vallaud Stephane 07:15:05 V1M M 0
409 Mestrie Vincent 07:15:07 V1M M 0
410 Rouby Patrick 07:15:12 V2M M 0
411 Leroux Olivier 07:15:16 SEM M 0
412 Rouffaud Vincent 07:15:20 SEM M 0
413 Donnadieu Herve 07:15:27 V1M M 0
414 Fabre Claude Adeline 07:15:33 V1F F 0
415 Pereira Jean Claude 07:15:35 V1M M 0
416 Thierry Solene 07:15:51 SEF F 0
417 Brunet Isabelle 07:15:53 SEF F 0
418 Laffont Roselyne 07:16:30 V1F F 0
419 Landais Frederic 07:16:48 V1M M 0
420 Aval Romain 07:17:32 SEM M 0
421 Rouge Florence 07:17:33 V2F F 0
422 Aval Nicolas 07:17:34 SEM M 0
423 Gabaston Thierry 07:18:28 SEM M 0
424 Cherbonnier Daisy 07:18:33 V1F F 0
425 Lamaison Patrick 07:19:12 V2M M 0
426 Robert Nathalie 07:19:26 V2F F 0
427 De Oliveira Jessica 07:19:29 SEF F 0
428 Loiseau Cedric 07:19:32 SEM M 0
429 Breau Damien 07:19:34 SEM M 0
430 Daude Frederic 07:19:38 V1M M 0
431 Lahana Laurent 07:20:29 V1M M 0
432 Discala Marie Francoise 07:20:47 V1F F 0
433 Cuny Ravet Gregory 07:21:08 SEM M 0
434 Tagneres Sebastien 07:21:36 V1M M 0
435 Martineau Frederic 07:21:47 V1M M 0
436 L'Hote Veronique 07:21:50 V1F F 0
437 Dupuy Robert 07:21:56 V3M M 0
438 Jambart Michel 07:22:11 V2M M 0
439 Galey Christel 07:22:14 V1F F 0
440 Dupin Cecile 07:22:17 V1F F 0
441 Vigie Franc 07:22:19 V1M M 0
442 Paillas Karin 07:22:26 V2F F 0
443 Guittard Nicolas 07:22:52 SEM M 0
444 Mirc Fabrice 07:23:38 V1M M 0
445 Bernard Guillaume 07:24:11 SEM M 0
446 Menant Nina 07:24:14 SEF F 0
447 Pradal Julien 07:24:16 V1M M 0
448 Laborde Florent 07:24:26 SEM M 0
449 Martineau Francoise 07:24:37 V1F F 0
450 Aubret Cindy 07:24:39 SEF F 0
451 Martineau Claire 07:24:41 SEF F 0
452 Turquand Vanessa 07:24:43 V1F F 0
453 Ouvrard Marie 07:24:45 V1F F 0
454 Meirinhos Georges 07:24:53 V1M M 0
455 Bourniquel Laurent 07:25:13 V1M M 0
456 Richard Lannig 07:25:19 SEM M 0
457 Balavoine Muriel 07:26:01 V2F F 0
458 Fondere Carmen 07:26:03 V2F F 0
459 Rouits Eisabeth 07:26:14 V1F F 0
460 Sirec Alexandre 07:26:27 SEM M 0
461 Rebotier Julien 07:28:25 SEM M 0
462 Davila Sebastien 07:28:38 V1M M 0
463 Birolini Alain 07:28:49 V1M M 0
464 Laramas Carole 07:29:45 SEF F 0
465 Bolay Lison 07:29:57 V1F F 0
466 Dehaibe Rodolphe 07:30:01 V1M M 0
467 Yong Virginie 07:30:18 V1F F 0
468 Rozo Fabien 07:31:16 V1M M 0
469 Gazet Alexandre 07:31:20 SEM M 0
470 Nonnon Aude 07:31:40 V1F F 0
471 Bescond Christophe 07:32:23 V2M M 0
472 Boukebal Salim 07:33:37 SEM M 0
473 Azema Eric 07:36:37 SEM M 0
474 Carpy Christophe 07:36:58 V1M M 0
475 Maurer Karine 07:37:30 V1F F 0
476 Fabre Michel 07:37:33 V1M M 0
477 Lagarrigue Elisabeth 07:38:44 SEF F 0
478 Pinaud Natacha 07:39:20 V1F F 0
479 Di Stefano Annelyse 07:39:22 V1F F 0
480 Baby Nathalie 07:39:27 V1F F 0
481 Morcillo Xavier 07:39:31 SEM M 0
482 Brosse Valerie 07:39:37 V1F F 0
483 Rey Steeve 07:39:58 SEM M 0
484 Daburon Olivier 07:40:27 V1M M 0
485 Bibe Alexandre 07:42:20 SEM M 0
486 Moutinho Cedric 07:42:37 SEM M 0
487 Charrier Samuel 07:43:00 SEM M 0
488 Guilbaud Pierre 07:43:02 SEM M 0
489 Rouille Benoit 07:43:05 SEM M 0
490 Garcia Christelle 07:43:48 SEF F 0
491 Vilain Olivier 07:43:51 V1M M 0
492 Foucreau Emilie 07:44:44 SEF F 0
493 Conchou Fabrice 07:44:47 V1M M 0
494 Rouquet Ludovic 07:47:42 V1M M 0
495 Bernard Jerome 07:48:17 SEM M 0
496 Lemaire Julien 07:48:54 SEM M 0
497 Not Celine 07:48:56 V1F F 0
498 Cazenave Vaquie Marjorie 07:49:02 SEF F 0
499 Petitjean Delphine 07:49:03 SEF F 0
500 Foucher Gael 07:49:09 V1M M 0
501 Grignon Thomas 07:50:08 SEM M 0
502 Lafargue Alexandre 07:50:12 SEM M 0
503 Escoffres Thierry 07:53:41 V1M M 0
504 Girard Gregory 07:53:44 V1M M 0
505 Pavero Philippe 07:54:40 SEM M 0
506 Marin Daniel 07:55:22 V1M M 0
507 Senegas Julie 07:55:49 SEF F 0
508 Senegas Patrick 07:55:52 V2M M 0
509 Raffy David 07:55:54 SEM M 0
510 Eleftheriou Stephanie 07:57:07 V1F F 0
511 Van Assche Nathalie 07:58:24 SEF F 0
512 Gaigeard Emmanuel 07:58:42 SEM M 0
513 Carre Sergei 07:59:15 V1M M 0
514 Phan Hoang Anh 07:59:17 SEF F 0
515 Saint Jean Stephane 07:59:19 V1M M 0
516 Lassere Pascale 07:59:39 V2F F 0
517 Barbeau Antony 08:01:07 SEM M 0
518 Pillet Laurent 08:02:55 V2M M 0
519 Montero Yaneisy 08:08:07 V1F F 0
520 Mazet Nicole 08:08:58 V3F F 0
521 Bondil Damienne 08:11:50 V1F F 0
522 Fontaine Perrine 08:11:53 SEF F 0
523 Antoine Eliane 08:14:51 V2F F 0
524 Pradere Sebastien 08:16:53 V1M M 0
525 Lagarde Philippe 08:19:12 V2M M 0
526 Lefebvre Bruno 08:19:18 V2M M 0
527 Mifsud Patrick 08:19:19 V3M M 0
528 Bonnet Vanessa 08:23:00 V1F F 0
529 Eysson Marie 08:25:04 V1F F 0
530 Tirado Robert 08:25:08 V2M M 0
531 Hernandez Stephanie 08:25:22 V1F F 0
532 Pages Caroline 08:25:25 V1F F 0
533 Fourio Gregory 08:27:09 V1M M 0
534 Lhomme Jerome 08:27:12 SEM M 0
535 Loirette Celine 08:29:39 SEF F 0
536 Izquierdo Jaime Edith 08:30:48 V1F F 0
537 Chretienne Philippe 08:37:22 V4M M 1 V4M 0
538 Aurejac Lilian 08:37:53 V1M M 0
539 Nevers Arnaud 08:37:55 V1M M 0
540 Julien Loic 08:38:50 SEM M 0
541 Delpech Jerome 08:38:53 V1M M 0
542 Gatelier Hugo 08:40:50 SEM M 0
543 Bassi Jean Marc 08:43:02 V1M M 0
544 Marchegay Yannick 08:44:09 SEM M 0
545 D'Agostin Jerome 08:47:32 SEM M 0
546 Viguier Alexandre 08:52:32 SEM M 0
547 Pic Tom 08:54:22 SEM M 0
548 Langevillier Virginie 08:56:25 SEF F 0
549 Perlin Laurent 08:57:13 SEM M 0
550 Cornu Pierre 08:58:32 SEM M 0
551 Nispola Noelle 09:00:45 V1F F 0
552 Barreteau Luc 09:03:58 V1M M 0
553 Rawa Joanna 09:04:10 V2F F 0
554 Santos Pejic Gloria 09:04:14 SEF F 0
555 Monmayrant Fabienne 09:05:00 V1F F 0
556 Clarke Guillaume 09:22:26 SEM M 0
557 Didier Sebastien 09:22:28 V1M M 0
558 Dedican Xavier 09:23:45 V1M M 0
559 Licari Stephanie 09:30:07 V1F F 0
560 D Angelo Patricia 09:30:09 V1F F 0
561 Loison Francoise 09:31:32 V1F F 0
562 Miquel Carine 09:41:45 V1F F 0
563 Bohn Elodie 09:41:48 SEF F 0
564 Miquel Marc 09:41:50 V1M M 0
565 Tujague Maurice 09:44:47 V3M M 0
566 Tisseire Marlene 09:51:03 V1F F 0
567 Tisseire Gregory 09:51:07 V1M M 0
568 Garrivet Laura 09:56:52 SEF F 0
569 Risso Amelie 10:22:33 SEF F 0
570 Rochel Nicolas 10:22:37 V1M M 0
571 Bonnefille Marie 10:50:45 V1F F 0
572 Cabassot Andre 10:58:04 V3M M 0


ReferencementCe site est listé dans la catégorie Sport : Sports extrêmes Dictionnaire
| Accueil | La Réunion  Vue du ciel | Météo | Cyclones | Volcan | Cirques de Mafate , Cilaos , Salazie | Photos Randonnées | Randonnées Réunion: Randos Espiègle , Courses montagne | Diagonale des Fous |  Marathon des Sables | Voyages Les stats du site | Fonds écran | Plan du site | Blog de runraid | Galerie photos Sport Réunion |